This is the latest recevied weather packets stored in our database for station/object WC4PEM-11. If no packets are shown the sender has not sent any weather packets the latest 10 day(s).
| Time | Temp. | Humidity | Pressure | Rain* | Wind** | Luminosity | Snow |
|---|---|---|---|---|---|---|---|
| 1777563797 | 27.22° C | 64% | 1012.7 hPa | 0 mm | - | - | - |
| 1777563497 | 27.22° C | 66% | 1012.7 hPa | 0 mm | - | - | - |
| 1777563318 | 27.22° C | 67% | 1012.7 hPa | 0 mm | - | - | - |
| 1777563197 | 27.22° C | 67% | 1012.7 hPa | 0 mm | - | - | - |
| 1777562897 | 27.22° C | 70% | 1012.7 hPa | 0 mm | - | - | - |
| 1777562597 | 26.67° C | 71% | 1012.6 hPa | 0 mm | - | - | - |
| 1777562297 | 26.67° C | 73% | 1012.6 hPa | 0 mm | - | - | - |
| 1777561997 | 26.11° C | 76% | 1012.6 hPa | 0 mm | - | - | - |
| 1777561993 | 25.56° C | 81% | 1012.5 hPa | 0 mm | - | - | - |
| 1777561697 | 26.11° C | 80% | 1012.5 hPa | 0 mm | - | - | - |
| 1777561397 | 25.56° C | 81% | 1012.5 hPa | 0 mm | - | - | - |
| 1777561287 | 25.56° C | 85% | 1012.5 hPa | 0 mm | - | - | - |
| 1777561097 | 25.56° C | 85% | 1012.5 hPa | 0 mm | - | - | - |
| 1777561010 | 24.44° C | 88% | 1012.5 hPa | 0 mm | - | - | - |
| 1777560797 | 24.44° C | 88% | 1012.5 hPa | 0 mm | - | - | - |
| 1777560497 | 24.44° C | 89% | 1012.7 hPa | 0 mm | - | - | - |
| 1777560197 | 23.89° C | 91% | 1012.8 hPa | 0 mm | - | - | - |
| 1777559897 | 23.33° C | 93% | 1012.8 hPa | 0 mm | - | - | - |
| 1777559670 | 23.33° C | 93% | 1012.8 hPa | 0 mm | - | - | - |
| 1777559597 | 23.33° C | 93% | 1012.8 hPa | 0 mm | - | - | - |
| 1777559297 | 22.78° C | 94% | 1013.1 hPa | 0 mm | - | - | - |
| 1777558998 | 22.78° C | 95% | 1013 hPa | 0 mm | - | - | - |
| 1777558697 | 22.22° C | 95% | 1012.6 hPa | 0 mm | - | - | - |
| 1777558397 | 22.22° C | 96% | 1012.7 hPa | 0 mm | - | - | - |
| 1777558097 | 22.22° C | 96% | 1012.8 hPa | 0 mm | - | - | - |
* Rain latest hour (hover to see other rain measurements)
** Current wind speed in m/s (hover to see current wind gust speed)